Location: ??
(35.5052°N, 139.7262°E)
Time: 02:22:08
(UTC+00:00)

Tsikada Rocket - Pass Details

Date: 20 June 2021
Orbit: 958 x 1009 km, 82.9° (Epoch: 26 July)

Event Time Altitude Azimuth Distance (km) Brightness Sun altitude
Exits shadow 14:50:02 52° 286° (WNW) 1,180 4.4 -31.0°
Drops below altitude 10° 14:55:52 10° 356° (N) 2,701 7.2 -31.0°
Sets 14:58:27 0° 1° (N) 3,648 8.2 -30.9°
